• In Deutschland
  • Länderverzeichnis
  • Für 7 Tage
  • Wassertemperatur
  • Satellitenkarten
  • Wetterkarte
  • Widgets
  • user-avatar
    Anmelden

    Stündliche Wetter Cruzília

    Heute, 20 September, Donnerstag

    Zeit Temperatur Niederschläge Wind Luftdruck Luftfeuchtigkeit
    00:00 +20°C° 0 mm 1 m/S 672 mmHg 80%
    01:00 +20°C° 0 mm 1 m/S 672 mmHg 81%
    02:00 +19°C° 0 mm 1 m/S 671 mmHg 83%
    03:00 +19°C° 0 mm 1 m/S 671 mmHg 84%
    04:00 +19°C° 0 mm 1 m/S 671 mmHg 85%
    05:00 +19°C° 0 mm 1 m/S 671 mmHg 86%
    06:00 +19°C° 0 mm 1 m/S 671 mmHg 87%
    07:00 +21°C° 0 mm 1 m/S 672 mmHg 82%
    08:00 +21°C° 0 mm 2 m/S 672 mmHg 77%
    09:00 +24°C° 0 mm 2 m/S 673 mmHg 72%
    10:00 +25°C° 0.1 mm 2 m/S 673 mmHg 67%
    11:00 +26°C° 0.1 mm 3 m/S 673 mmHg 63%
    12:00 +27°C° 0.1 mm 3 m/S 673 mmHg 58%
    13:00 +27°C° 0.5 mm 3 m/S 672 mmHg 59%
    14:00 +26°C° 0.5 mm 3 m/S 672 mmHg 60%
    15:00 +26°C° 0.5 mm 3 m/S 671 mmHg 61%
    16:00 +24°C° 0.9 mm 2 m/S 671 mmHg 68%
    17:00 +23°C° 0.9 mm 1 m/S 672 mmHg 75%
    18:00 +21°C° 0.9 mm 1 m/S 672 mmHg 82%
    19:00 +20°C° 0.8 mm 1 m/S 672 mmHg 83%
    20:00 +20°C° 0.8 mm 1 m/S 672 mmHg 84%
    21:00 +20°C° 0.8 mm 1 m/S 673 mmHg 85%
    22:00 +19°C° 0.3 mm 1 m/S 672 mmHg 86%
    23:00 +19°C° 0.3 mm 1 m/S 672 mmHg 87%

    Morgen, 21 September, Freitag

    Zeit Temperatur Niederschläge Wind Luftdruck Luftfeuchtigkeit
    00:00 +19°C° 0.3 mm 1 m/S 672 mmHg 88%
    01:00 +18°C° 0.1 mm 1 m/S 671 mmHg 88%
    02:00 +18°C° 0.1 mm 1 m/S 671 mmHg 89%
    03:00 +17°C° 0.1 mm 2 m/S 671 mmHg 90%
    04:00 +17°C° 0 mm 2 m/S 671 mmHg 91%
    05:00 +18°C° 0 mm 1 m/S 671 mmHg 93%
    06:00 +16°C° 0 mm 1 m/S 671 mmHg 94%
    07:00 +18°C° 0 mm 2 m/S 671 mmHg 87%
    08:00 +20°C° 0 mm 2 m/S 672 mmHg 81%
    09:00 +23°C° 0 mm 2 m/S 673 mmHg 74%
    10:00 +24°C° 0.1 mm 2 m/S 673 mmHg 70%
    11:00 +25°C° 0.1 mm 2 m/S 672 mmHg 66%
    12:00 +26°C° 0.1 mm 2 m/S 672 mmHg 62%
    13:00 +26°C° 0.5 mm 2 m/S 672 mmHg 61%
    14:00 +26°C° 0.5 mm 2 m/S 671 mmHg 60%
    15:00 +26°C° 0.5 mm 2 m/S 671 mmHg 59%
    16:00 +25°C° 0.6 mm 1 m/S 671 mmHg 66%
    17:00 +23°C° 0.6 mm 1 m/S 670 mmHg 73%
    18:00 +19°C° 0.6 mm 0 m/S 670 mmHg 80%
    19:00 +19°C° 0.3 mm 0 m/S 671 mmHg 82%
    20:00 +18°C° 0.3 mm 0 m/S 671 mmHg 84%
    21:00 +17°C° 0.3 mm 0 m/S 671 mmHg 86%
    22:00 +19°C° 0 mm 1 m/S 671 mmHg 87%
    23:00 +19°C° 0 mm 1 m/S 671 mmHg 88%

    übermorgen, 22 September, Samstag

    Zeit Temperatur Niederschläge Wind Luftdruck Luftfeuchtigkeit
    00:00 +18°C° 0 mm 1 m/S 671 mmHg 88%
    01:00 +18°C° 0 mm 1 m/S 670 mmHg 89%
    02:00 +18°C° 0 mm 1 m/S 670 mmHg 89%
    03:00 +16°C° 0 mm 1 m/S 669 mmHg 90%
    04:00 +16°C° 0 mm 1 m/S 670 mmHg 90%
    05:00 +16°C° 0 mm 1 m/S 670 mmHg 90%
    06:00 +16°C° 0 mm 1 m/S 670 mmHg 91%
    07:00 +19°C° 0 mm 1 m/S 671 mmHg 83%
    08:00 +22°C° 0 mm 1 m/S 672 mmHg 75%
    09:00 +24°C° 0 mm 1 m/S 673 mmHg 67%
    10:00 +26°C° 0 mm 1 m/S 673 mmHg 61%
    11:00 +27°C° 0 mm 1 m/S 673 mmHg 55%
    12:00 +29°C° 0 mm 1 m/S 673 mmHg 48%
    13:00 +29°C° 0.1 mm 1 m/S 672 mmHg 48%
    14:00 +29°C° 0.1 mm 1 m/S 671 mmHg 48%
    15:00 +28°C° 0.1 mm 1 m/S 670 mmHg 48%
    16:00 +27°C° 0.2 mm 1 m/S 670 mmHg 54%
    17:00 +25°C° 0.2 mm 1 m/S 670 mmHg 60%
    18:00 +23°C° 0.2 mm 1 m/S 670 mmHg 66%
    19:00 +22°C° 0.1 mm 1 m/S 670 mmHg 71%
    20:00 +21°C° 0.1 mm 1 m/S 670 mmHg 76%
    21:00 +19°C° 0.1 mm 2 m/S 671 mmHg 82%
    22:00 +19°C° 0.1 mm 2 m/S 670 mmHg 84%
    23:00 +18°C° 0.1 mm 2 m/S 670 mmHg 86%

    23 September, Sonntag

    Zeit Temperatur Niederschläge Wind Luftdruck Luftfeuchtigkeit
    00:00 +18°C° 0.1 mm 2 m/S 670 mmHg 88%
    01:00 +19°C° 0 mm 1 m/S 670 mmHg 89%
    02:00 +18°C° 0 mm 1 m/S 669 mmHg 90%
    03:00 +18°C° 0 mm 1 m/S 669 mmHg 91%
    04:00 +18°C° 0 mm 1 m/S 669 mmHg 92%
    05:00 +18°C° 0 mm 1 m/S 670 mmHg 93%
    06:00 +18°C° 0 mm 1 m/S 670 mmHg 94%
    07:00 +20°C° 0.1 mm 1 m/S 671 mmHg 86%
    08:00 +21°C° 0.1 mm 2 m/S 672 mmHg 77%
    09:00 +24°C° 0.1 mm 2 m/S 673 mmHg 69%
    10:00 +26°C° 0.1 mm 2 m/S 673 mmHg 63%
    11:00 +27°C° 0.1 mm 2 m/S 672 mmHg 57%
    12:00 +29°C° 0.1 mm 2 m/S 672 mmHg 50%
    13:00 +29°C° 0.4 mm 2 m/S 672 mmHg 50%
    14:00 +29°C° 0.4 mm 2 m/S 671 mmHg 50%
    15:00 +28°C° 0.4 mm 2 m/S 671 mmHg 51%
    16:00 +27°C° 0.6 mm 1 m/S 670 mmHg 57%
    17:00 +25°C° 0.6 mm 1 m/S 670 mmHg 64%
    18:00 +23°C° 0.6 mm 1 m/S 670 mmHg 70%
    19:00 +22°C° 0.4 mm 1 m/S 670 mmHg 73%
    20:00 +21°C° 0.4 mm 1 m/S 670 mmHg 76%
    21:00 +21°C° 0.4 mm 1 m/S 670 mmHg 79%
    22:00 +20°C° 0.4 mm 1 m/S 670 mmHg 82%
    23:00 +20°C° 0.4 mm 1 m/S 670 mmHg 84%

    24 September, Montag

    Zeit Temperatur Niederschläge Wind Luftdruck Luftfeuchtigkeit
    00:00 +19°C° 0.4 mm 1 m/S 670 mmHg 86%
    01:00 +19°C° 0.3 mm 1 m/S 670 mmHg 88%
    02:00 +19°C° 0.3 mm 1 m/S 670 mmHg 89%
    03:00 +19°C° 0.3 mm 1 m/S 670 mmHg 91%
    04:00 +19°C° 0.1 mm 1 m/S 670 mmHg 92%
    05:00 +18°C° 0.1 mm 1 m/S 670 mmHg 92%
    06:00 +18°C° 0.1 mm 1 m/S 671 mmHg 93%
    07:00 +20°C° 0.5 mm 1 m/S 671 mmHg 85%
    08:00 +23°C° 0.5 mm 1 m/S 672 mmHg 77%
    09:00 +25°C° 0.5 mm 2 m/S 673 mmHg 69%
    10:00 +26°C° 0.4 mm 2 m/S 672 mmHg 64%
    11:00 +27°C° 0.4 mm 2 m/S 672 mmHg 58%
    12:00 +28°C° 0.4 mm 2 m/S 672 mmHg 52%
    13:00 +28°C° 0.5 mm 2 m/S 671 mmHg 53%
    14:00 +28°C° 0.5 mm 2 m/S 671 mmHg 54%
    15:00 +28°C° 0.5 mm 1 m/S 670 mmHg 56%
    16:00 +26°C° 1.3 mm 1 m/S 670 mmHg 64%
    17:00 +24°C° 1.3 mm 1 m/S 670 mmHg 72%
    18:00 +22°C° 1.3 mm 1 m/S 670 mmHg 80%
    19:00 +21°C° 0.3 mm 1 m/S 670 mmHg 81%
    20:00 +21°C° 0.3 mm 1 m/S 671 mmHg 83%
    21:00 +18°C° 0.3 mm 0 m/S 671 mmHg 84%
    22:00 +20°C° 0 mm 1 m/S 670 mmHg 85%
    23:00 +20°C° 0 mm 1 m/S 670 mmHg 86%

    25 September, Dienstag

    Zeit Temperatur Niederschläge Wind Luftdruck Luftfeuchtigkeit
    00:00 +19°C° 0 mm 1 m/S 670 mmHg 87%
    01:00 +19°C° 0 mm 1 m/S 669 mmHg 88%
    02:00 +19°C° 0 mm 1 m/S 669 mmHg 88%
    03:00 +18°C° 0 mm 1 m/S 669 mmHg 89%
    04:00 +18°C° 0 mm 1 m/S 669 mmHg 90%
    05:00 +18°C° 0 mm 1 m/S 669 mmHg 90%
    06:00 +18°C° 0 mm 1 m/S 670 mmHg 91%
    07:00 +20°C° 0 mm 1 m/S 671 mmHg 83%
    08:00 +22°C° 0 mm 1 m/S 671 mmHg 76%
    09:00 +25°C° 0 mm 1 m/S 672 mmHg 69%
    10:00 +26°C° 0.3 mm 1 m/S 672 mmHg 65%
    11:00 +27°C° 0.3 mm 1 m/S 672 mmHg 61%
    12:00 +28°C° 0.3 mm 1 m/S 672 mmHg 57%
    13:00 +28°C° 1.2 mm 1 m/S 671 mmHg 58%
    14:00 +28°C° 1.2 mm 1 m/S 671 mmHg 59%
    15:00 +27°C° 1.2 mm 1 m/S 670 mmHg 61%
    16:00 +26°C° 1.6 mm 1 m/S 670 mmHg 68%
    17:00 +24°C° 1.6 mm 1 m/S 670 mmHg 75%
    18:00 +22°C° 1.6 mm 1 m/S 670 mmHg 82%
    19:00 +21°C° 0.6 mm 1 m/S 670 mmHg 84%
    20:00 +21°C° 0.6 mm 1 m/S 670 mmHg 86%
    21:00 +19°C° 0.6 mm 2 m/S 670 mmHg 88%
    22:00 +19°C° 0.1 mm 2 m/S 670 mmHg 89%
    23:00 +19°C° 0.1 mm 1 m/S 670 mmHg 91%
    Mehr zeigen